Torna al catalogo

JACK-004

AttivoScienzaSSO
NORAD 66659·PAYLOAD·🇰🇷 South Korea

Lanciato Nov 26, 2025 da Naro Space Center

Loading…

Prossimi Passaggi (prossime 24 ore)

TLE

AggiornatoSource: Space-Track

Epoca: Sep 12, 2026, 17:59 UTC

1 66659U 25274K   26255.74997065  .00001788  00000-0  17229-3 0  9997
2 66659  97.7482 183.9537 0014907  86.8265 273.4660 14.94112668 43303

Traccia JACK-004 in tempo reale con AllMySat

Download on the App Store